Regional Weather Roundup
Issued by NWS

Home | Current Version | Previous Version | Graphics & Text | Print | Product List | Glossary On
Versions: 1 2 3 4 5 6 7 8 9 10 11 12 13 14 15 16 17 18 19 20 21 22 23 24 25 26 27 28 29 30 31 32 33 34 35 36 37 38 39 40 41 42 43 44 45 46 47 48 49 50
000
ASUS43 KLOT 202210
RWRIL

ILLINOIS REGIONAL WEATHER ROUNDUP
NATIONAL WEATHER SERVICE CHICAGO/ROMEOVILLE IL
400 PM CST SAT DEC 20 2014

NOTE: "FAIR" INDICATES FEW OR NO CLOUDS BELOW 12,000 FEET WITH NO
SIGNIFICANT WEATHER AND/OR OBSTRUCTIONS TO VISIBILITY.

* THESE STATIONS ARE NOT UNDER NWS QUALITY CONTROL. THEY ALSO MAY NOT
  REPORT WEATHER SUCH AS PRECIPITATION OR FOG.

ILZ001-002-007-009-015-016-024-202300-
NORTHWEST ILLINOIS

CITY           SKY/WX    TMP DP  RH WIND       PRES   REMARKS
MOLINE         CLOUDY    34  27  75 SE6       30.20S HAZE    WCI  29
STERLING*      CLOUDY    34  25  69 SE5       30.22S WCI  30
SAVANNA*       CLOUDY    33  26  75 SE6       30.21S WCI  28
$$

ILZ003-004-008-010-011-017-018-202300-
NORTH CENTRAL ILLINOIS

CITY           SKY/WX    TMP DP  RH WIND       PRES   REMARKS
ROCKFORD       CLOUDY    31  24  75 S5        30.25R WCI  26
FREEPORT*      CLOUDY    31  25  80 SE5       30.24R WCI  26
ROCHELLE*      CLOUDY    31  27  85 S6        30.24R FOG     WCI  25
DE KALB*       CLOUDY    30  26  84 S6        30.23S FOG     WCI  24
PERU*          CLOUDY    34  28  79 S7        30.25R WCI  28
$$

ILZ005-006-012>014-019>023-202300-
NORTHEAST ILLINOIS

CITY           SKY/WX    TMP DP  RH WIND       PRES   REMARKS
CHICAGO-OHARE  FLURRIES  32  23  69 S7        30.24R WCI  26
CHICAGO-MIDWAY CLOUDY    34  25  69 S5        30.25S WCI  30
AURORA         CLOUDY    33  26  75 S5        30.24S HAZE    WCI  29
LANSING*       CLOUDY    32  26  77 SW5       30.26S WCI  28
JOLIET*        CLOUDY    32  26  77 S3        30.25S
WAUKEGAN       CLOUDY    31  24  75 SW5       30.23S WCI  26
DUPAGE AIRPORT CLOUDY    32  25  75 S5        30.23S WCI  27
KANKAKEE*      CLOUDY    33  27  79 CALM      30.26F
WHEELING       CLOUDY    33  23  66 SW5       30.26R WCI  29
MORRIS*        CLOUDY    33  29  85 S5        30.25R WCI  28
ROMEOVILLE*    CLOUDY    32  26  77 S5        30.25S WCI  28
NORTHERLY ISL    N/A     33  24  70 S3          N/A
$$

LMZ740>746-202300-
SOUTHERN LAKE MICHIGAN

STATION/POSITION SKY/WX   TEMP    WIND        PRES    VSBY  WAVE
                          AIR SEA DIR/SP/G                  HT/PER
                          (F)     (DEG/KT/KT) (MB)    (MI)  (FT/S)
WAUKEGAN HARBOR            32      CALM  /  2   N/A
HARRISON CRIB              33     230/  7/ 11   N/A
BURNHAM HARBOR             33     210/  5/  7   N/A
CALUMET HARBOR             33     210/  4/  6 1023.3R
$$

ILZ025>027-034>036-040-047-049-050-058-095>099-202300-
WEST-CENTRAL ILLINOIS

CITY           SKY/WX    TMP DP  RH WIND       PRES   REMARKS
QUINCY         CLOUDY    37  33  85 SE6       30.20R FOG     WCI  32
GALESBURG*     CLOUDY    34  30  85 SE5       30.20S WCI  30
MACOMB*        CLOUDY    36  33  90 S7        30.23R FOG     WCI  30
JACKSONVILLE*  CLOUDY    40  34  77 S3        30.23R
PITTSFIELD*    CLOUDY    37  34  89 SE3       30.23R FOG
$$

ILZ028>032-037-038-041>044-048-051>054-059>061-202300-
CENTRAL ILLINOIS

CITY           SKY/WX    TMP DP  RH WIND       PRES   REMARKS
PONTIAC        CLOUDY    34  29  82 S6        30.25S WCI  29
BLOOMINGTON    CLOUDY    33  29  86 SE5       30.25R WCI  28
DECATUR        MOCLDY    35  27  72 SE5       30.25R WCI  31
PEORIA         CLOUDY    36  26  67 SE6       30.23R WCI  31
LACON*         CLOUDY    33  26  74 SE6       30.23S WCI  28
LINCOLN*       CLOUDY    36  30  78 SE5       30.25R WCI  32
SPRINGFIELD    CLOUDY    38  31  76 SE7       30.24R WCI  33
TAYLORVILLE    CLOUDY    36  32  87 SE5       30.25R WCI  32
$$

ILZ033-039-045-046-055>057-062-063-202300-
EAST-CENTRAL ILLINOIS

CITY           SKY/WX    TMP DP  RH WIND       PRES   REMARKS
CHAMPAIGN      CLOUDY    34  26  72 S7        30.26R WCI  28
DANVILLE*      CLOUDY    33  26  77 CALM      30.24R
RANTOUL*       CLOUDY    34  28  79 S5        30.25S WCI  30
MATTOON        CLOUDY    35  26  69 S7        30.25R WCI  29
PARIS*         CLOUDY    34  29  83 CALM      30.28R
$$

ILZ079-100>102-202300-
SOUTHWEST ILLINOIS

CITY           SKY/WX    TMP DP  RH WIND       PRES   REMARKS
BELLEVILLE     CLOUDY    41  34  77 E6        30.24R
CAHOKIA*       CLOUDY    42  34  73 SE7       30.23S
SPARTA*        CLOUDY    41  32  71 SE3       30.25R
$$

ILZ064>066-069>071-074>076-080>082-084>086-088>090-092>094-202300-
SOUTH-CENTRAL ILLINOIS

CITY           SKY/WX    TMP DP  RH WIND       PRES   REMARKS
CARBONDALE     MOCLDY    42  30  62 CALM      30.25S
CAIRO*         CLOUDY    45  31  59 CALM      30.26R
EFFINGHAM*     CLEAR     37  25  62 SE6       30.28R WCI  32
MARION         MOCLDY    43  32  65 S5        30.26R
MT. VERNON     CLOUDY    39  27  60 E5        30.27R
CENTRALIA*     CLOUDY    38  29  70 SE5       30.25S WCI  35
SALEM*         CLOUDY    40  29  64 SE5       30.26R
METROPOLIS*    CLEAR     43  32  65 S5        30.25S
$$

ILZ067-068-072-073-078-083-087-091-202300-
SOUTHEAST ILLINOIS

CITY           SKY/WX    TMP DP  RH WIND       PRES   REMARKS
LAWRENCEVILLE  CLOUDY    36  27  69 CALM      30.29R
FLORA*         CLEAR     36  28  73 SE6       30.28R WCI  31
FAIRFIELD*     CLEAR     36  27  70 CALM      30.26S
HARRISBURG*    CLOUDY    39  29  67 NE5       30.28R
ROBINSON*      CLOUDY    35  28  73 E5        30.30R WCI  31
CARMI*         CLEAR     41  29  63 E3        30.28R
$$

ABBREVIATIONS USED IN REMARKS
   TC - TEMPERATURE IN CELSIUS
  WCI - WIND CHILL INDEX
   HX - HEAT INDEX
  VSB - VISIBILITY
$$




USA.gov is the U.S. government's official web portal to all federal, state and local government web resources and services.